Time,TemperatureF,DewpointF,PressureIn,WindDirection,WindDirectionDegrees,WindSpeedMPH,WindSpeedGustMPH,Humidity,HourlyPrecipIn,Conditions,Clouds,dailyrainin,SoftwareType,DateUTC
2013-02-08 00:00:00,68.3,64.3,29.86,WSW,243,3.0,25.0,87,0.00,,---,0.00,VWS V12.08,2013-02-08 05:00:00,
2013-02-08 00:01:00,68.3,64.3,29.86,WSW,244,3.0,25.0,87,0.00,,---,0.00,VWS V12.08,2013-02-08 05:01:00,
2013-02-08 00:06:00,68.2,64.2,29.86,WSW,243,3.0,25.0,87,0.00,,---,0.00,VWS V12.08,2013-02-08 05:06:00,
2013-02-08 00:11:00,68.0,64.0,29.86,WSW,238,6.0,25.0,87,0.00,,---,0.00,VWS V12.08,2013-02-08 05:11:00,
2013-02-08 00:16:00,68.0,64.0,29.86,WSW,246,6.0,25.0,87,0.00,,---,0.00,VWS V12.08,2013-02-08 05:16:00,
2013-02-08 00:21:00,67.9,63.9,29.86,WSW,245,3.0,25.0,87,0.00,,---,0.00,VWS V12.08,2013-02-08 05:21:00,
2013-02-08 00:26:00,67.7,63.7,29.86,WSW,250,7.0,25.0,87,0.00,,---,0.00,VWS V12.08,2013-02-08 05:26:00,
2013-02-08 00:31:00,67.6,63.9,29.86,WSW,256,0.0,25.0,88,0.00,,---,0.00,VWS V12.08,2013-02-08 05:31:00,
2013-02-08 00:36:00,67.5,63.8,29.86,WSW,248,6.0,25.0,88,0.00,,---,0.00,VWS V12.08,2013-02-08 05:36:00,
2013-02-08 00:41:00,67.4,63.7,29.85,WSW,248,2.0,25.0,88,0.00,,---,0.00,VWS V12.08,2013-02-08 05:41:00,
2013-02-08 00:46:00,67.4,64.1,29.86,NW,315,4.0,25.0,89,0.00,,---,0.00,VWS V12.08,2013-02-08 05:46:00,
2013-02-08 00:51:00,67.4,64.1,29.86,WNW,284,2.0,25.0,89,0.00,,---,0.00,VWS V12.08,2013-02-08 05:51:00,
2013-02-08 00:56:00,67.3,63.6,29.86,West,281,0.0,25.0,88,0.00,,---,0.00,VWS V12.08,2013-02-08 05:56:00,
2013-02-08 01:01:00,67.2,63.8,29.86,West,279,0.0,25.0,89,0.00,,---,0.00,VWS V12.08,2013-02-08 06:01:00,
2013-02-08 01:06:00,67.1,63.8,29.86,West,278,4.0,25.0,89,0.00,,---,0.00,VWS V12.08,2013-02-08 06:06:00,
2013-02-08 01:11:00,67.0,63.7,29.86,West,273,1.0,25.0,89,0.00,,---,0.00,VWS V12.08,2013-02-08 06:11:00,
2013-02-08 01:16:00,66.9,63.6,29.86,West,272,0.0,25.0,89,0.00,,---,0.00,VWS V12.08,2013-02-08 06:16:00,
2013-02-08 01:21:00,66.8,63.5,29.86,West,261,5.0,25.0,89,0.00,,---,0.00,VWS V12.08,2013-02-08 06:21:00,
2013-02-08 01:26:00,66.9,63.9,29.86,WSW,254,5.0,25.0,90,0.00,,---,0.00,VWS V12.08,2013-02-08 06:26:00,
2013-02-08 01:31:00,66.9,63.9,29.86,WSW,251,4.0,25.0,90,0.00,,---,0.00,VWS V12.08,2013-02-08 06:31:00,
2013-02-08 01:36:00,66.9,63.9,29.86,WSW,249,5.0,25.0,90,0.00,,---,0.00,VWS V12.08,2013-02-08 06:36:00,
2013-02-08 01:41:00,67.0,64.0,29.86,WSW,251,0.0,25.0,90,0.00,,---,0.00,VWS V12.08,2013-02-08 06:41:00,
2013-02-08 01:46:00,67.2,64.2,29.86,West,270,7.0,25.0,90,0.00,,---,0.00,VWS V12.08,2013-02-08 06:46:00,
2013-02-08 01:51:00,67.3,64.3,29.86,WSW,256,7.0,25.0,90,0.00,,---,0.00,VWS V12.08,2013-02-08 06:51:00,
2013-02-08 01:56:00,67.4,64.4,29.86,West,274,0.0,25.0,90,0.00,,---,0.00,VWS V12.08,2013-02-08 06:56:00,
2013-02-08 02:01:00,67.4,64.4,29.86,WSW,248,4.0,25.0,90,0.00,,---,0.00,VWS V12.08,2013-02-08 07:01:00,
2013-02-08 02:06:00,67.6,64.6,29.86,WSW,252,10.0,25.0,90,0.00,,---,0.00,VWS V12.08,2013-02-08 07:06:00,
2013-02-08 02:11:00,67.8,64.8,29.86,WSW,257,6.0,25.0,90,0.00,,---,0.00,VWS V12.08,2013-02-08 07:11:00,
2013-02-08 02:16:00,67.9,64.9,29.86,WSW,257,4.0,25.0,90,0.00,,---,0.00,VWS V12.08,2013-02-08 07:16:00,
2013-02-08 02:21:00,68.1,65.1,29.85,WSW,244,6.0,25.0,90,0.00,,---,0.00,VWS V12.08,2013-02-08 07:21:00,
2013-02-08 02:26:00,68.1,65.1,29.85,WSW,251,6.0,25.0,90,0.00,,---,0.00,VWS V12.08,2013-02-08 07:26:00,
2013-02-08 02:31:00,68.1,65.1,29.85,WSW,253,5.0,25.0,90,0.00,,---,0.00,VWS V12.08,2013-02-08 07:31:00,
2013-02-08 02:36:00,67.9,64.9,29.85,West,267,7.0,25.0,90,0.00,,---,0.00,VWS V12.08,2013-02-08 07:36:00,
2013-02-08 02:41:00,67.9,64.9,29.85,WSW,246,5.0,25.0,90,0.00,,---,0.00,VWS V12.08,2013-02-08 07:41:00,
2013-02-08 02:46:00,67.9,64.9,29.85,West,263,4.0,25.0,90,0.00,,---,0.00,VWS V12.08,2013-02-08 07:46:00,
2013-02-08 02:51:00,67.9,64.9,29.85,West,259,3.0,25.0,90,0.00,,---,0.00,VWS V12.08,2013-02-08 07:51:00,
2013-02-08 02:56:00,67.8,64.8,29.85,WSW,256,5.0,25.0,90,0.00,,---,0.00,VWS V12.08,2013-02-08 07:56:00,
2013-02-08 03:01:00,67.9,64.9,29.85,West,263,0.0,25.0,90,0.00,,---,0.00,VWS V12.08,2013-02-08 08:01:00,
2013-02-08 03:06:00,67.8,64.8,29.85,WSW,254,5.0,25.0,90,0.00,,---,0.00,VWS V12.08,2013-02-08 08:06:00,
2013-02-08 03:11:00,67.8,64.8,29.85,West,261,4.0,25.0,90,0.00,,---,0.00,VWS V12.08,2013-02-08 08:11:00,
2013-02-08 03:16:00,67.8,64.8,29.85,West,262,0.0,25.0,90,0.00,,---,0.00,VWS V12.08,2013-02-08 08:16:00,
2013-02-08 03:21:00,67.8,64.8,29.85,WNW,291,7.0,25.0,90,0.00,,---,0.00,VWS V12.08,2013-02-08 08:21:00,
2013-02-08 03:26:00,67.9,64.9,29.86,WSW,254,3.0,25.0,90,0.00,,---,0.00,VWS V12.08,2013-02-08 08:26:00,
2013-02-08 03:31:00,67.9,64.9,29.86,WNW,292,4.0,25.0,90,0.00,,---,0.00,VWS V12.08,2013-02-08 08:31:00,
2013-02-08 03:36:00,67.9,64.9,29.86,WNW,299,0.0,25.0,90,0.00,,---,0.00,VWS V12.08,2013-02-08 08:36:00,
2013-02-08 03:41:00,67.9,64.9,29.86,WNW,298,2.0,25.0,90,0.00,,---,0.00,VWS V12.08,2013-02-08 08:41:00,
2013-02-08 03:46:00,67.9,64.9,29.86,NW,309,0.0,25.0,90,0.00,,---,0.00,VWS V12.08,2013-02-08 08:46:00,
2013-02-08 03:51:00,67.7,64.7,29.86,West,261,6.0,25.0,90,0.00,,---,0.00,VWS V12.08,2013-02-08 08:51:00,
2013-02-08 03:56:00,67.5,64.2,29.86,WNW,297,2.0,25.0,89,0.00,,---,0.00,VWS V12.08,2013-02-08 08:56:00,
2013-02-08 04:01:00,67.2,63.8,29.86,WNW,297,0.0,25.0,89,0.00,,---,0.00,VWS V12.08,2013-02-08 09:01:00,
2013-02-08 04:06:00,67.1,63.8,29.86,NW,304,6.0,25.0,89,0.00,,---,0.00,VWS V12.08,2013-02-08 09:06:00,
2013-02-08 04:11:00,66.9,63.6,29.86,West,272,0.0,25.0,89,0.00,,---,0.00,VWS V12.08,2013-02-08 09:11:00,
2013-02-08 04:16:00,66.7,63.4,29.86,WNW,301,6.0,25.0,89,0.00,,---,0.00,VWS V12.08,2013-02-08 09:16:00,
2013-02-08 04:21:00,66.6,63.3,29.86,WNW,295,1.0,25.0,89,0.00,,---,0.00,VWS V12.08,2013-02-08 09:21:00,
2013-02-08 04:26:00,66.4,63.1,29.87,WNW,288,5.0,25.0,89,0.00,,---,0.00,VWS V12.08,2013-02-08 09:26:00,
2013-02-08 04:31:00,66.2,62.9,29.87,West,279,1.0,25.0,89,0.00,,---,0.00,VWS V12.08,2013-02-08 09:31:00,
2013-02-08 04:36:00,65.9,62.6,29.87,West,275,4.0,25.0,89,0.00,,---,0.00,VWS V12.08,2013-02-08 09:36:00,
2013-02-08 04:41:00,65.7,62.4,29.87,West,279,4.0,25.0,89,0.00,,---,0.00,VWS V12.08,2013-02-08 09:41:00,
2013-02-08 04:46:00,65.5,62.5,29.87,WNW,286,0.0,25.0,90,0.00,,---,0.00,VWS V12.08,2013-02-08 09:46:00,
2013-02-08 04:51:00,65.3,62.3,29.87,West,259,4.0,25.0,90,0.00,,---,0.00,VWS V12.08,2013-02-08 09:51:00,
2013-02-08 04:56:00,65.1,61.8,29.88,WNW,301,4.0,25.0,89,0.00,,---,0.00,VWS V12.08,2013-02-08 09:56:00,
2013-02-08 05:01:00,64.9,61.9,29.88,WNW,298,0.0,25.0,90,0.00,,---,0.00,VWS V12.08,2013-02-08 10:01:00,
2013-02-08 05:06:00,64.8,61.8,29.88,WNW,298,7.0,25.0,90,0.00,,---,0.00,VWS V12.08,2013-02-08 10:06:00,
2013-02-08 05:11:00,64.7,61.7,29.88,WNW,297,1.0,25.0,90,0.00,,---,0.00,VWS V12.08,2013-02-08 10:11:00,
2013-02-08 05:16:00,64.6,61.6,29.88,NW,304,0.0,25.0,90,0.00,,---,0.00,VWS V12.08,2013-02-08 10:16:00,
2013-02-08 05:21:00,64.4,61.7,29.89,NW,304,2.0,25.0,91,0.00,,---,0.00,VWS V12.08,2013-02-08 10:21:00,
2013-02-08 05:26:00,64.4,61.7,29.88,WNW,299,6.0,25.0,91,0.00,,---,0.00,VWS V12.08,2013-02-08 10:26:00,
2013-02-08 05:31:00,64.3,61.6,29.89,WNW,302,0.0,25.0,91,0.00,,---,0.00,VWS V12.08,2013-02-08 10:31:00,
2013-02-08 05:36:00,64.3,61.6,29.89,NW,306,4.0,25.0,91,0.00,,---,0.00,VWS V12.08,2013-02-08 10:36:00,
2013-02-08 05:41:00,64.2,61.5,29.89,WNW,302,0.0,25.0,91,0.00,,---,0.00,VWS V12.08,2013-02-08 10:41:00,
2013-02-08 05:46:00,64.1,61.4,29.89,NW,306,4.0,25.0,91,0.00,,---,0.00,VWS V12.08,2013-02-08 10:46:00,
2013-02-08 05:51:00,63.9,61.2,29.90,WNW,296,2.0,25.0,91,0.00,,---,0.00,VWS V12.08,2013-02-08 10:51:00,
2013-02-08 05:56:00,63.7,61.0,29.90,NW,325,8.0,25.0,91,0.00,,---,0.00,VWS V12.08,2013-02-08 10:56:00,
2013-02-08 06:01:00,63.5,60.8,29.90,NW,310,4.0,25.0,91,0.00,,---,0.00,VWS V12.08,2013-02-08 11:01:00,
2013-02-08 06:06:00,63.2,60.2,29.91,WNW,302,5.0,25.0,90,0.00,,---,0.00,VWS V12.08,2013-02-08 11:06:00,
2013-02-08 06:11:00,63.1,60.4,29.91,WNW,303,2.0,25.0,91,0.00,,---,0.00,VWS V12.08,2013-02-08 11:11:00,
2013-02-08 06:16:00,62.9,60.2,29.91,WNW,302,0.0,25.0,91,0.00,,---,0.00,VWS V12.08,2013-02-08 11:16:00,
2013-02-08 06:21:00,62.7,60.0,29.91,WNW,300,0.0,25.0,91,0.00,,---,0.00,VWS V12.08,2013-02-08 11:21:00,
2013-02-08 06:26:00,62.5,59.8,29.91,WNW,300,0.0,25.0,91,0.00,,---,0.00,VWS V12.08,2013-02-08 11:26:00,
2013-02-08 06:31:00,62.4,59.7,29.92,WNW,300,1.0,25.0,91,0.00,,---,0.00,VWS V12.08,2013-02-08 11:31:00,
2013-02-08 06:36:00,62.3,59.6,29.92,WNW,302,0.0,25.0,91,0.00,,---,0.00,VWS V12.08,2013-02-08 11:36:00,
2013-02-08 06:41:00,62.3,59.6,29.92,WNW,298,0.0,25.0,91,0.00,,---,0.00,VWS V12.08,2013-02-08 11:41:00,
2013-02-08 06:46:00,62.2,59.5,29.93,WNW,298,0.0,25.0,91,0.00,,---,0.00,VWS V12.08,2013-02-08 11:46:00,
2013-02-08 06:51:00,62.1,59.5,29.93,WNW,298,1.0,25.0,91,0.00,,---,0.00,VWS V12.08,2013-02-08 11:51:00,
2013-02-08 06:56:00,61.9,59.2,29.93,WNW,298,0.0,25.0,91,0.00,,---,0.00,VWS V12.08,2013-02-08 11:56:00,
2013-02-08 07:01:00,61.8,59.2,29.93,WNW,298,2.0,25.0,91,0.00,,---,0.00,VWS V12.08,2013-02-08 12:01:00,
2013-02-08 07:06:00,61.8,59.5,29.93,WNW,297,0.0,25.0,92,0.00,,---,0.00,VWS V12.08,2013-02-08 12:06:00,
2013-02-08 07:11:00,61.6,59.3,29.93,WNW,297,0.0,25.0,92,0.00,,---,0.00,VWS V12.08,2013-02-08 12:11:00,
2013-02-08 07:16:00,61.5,59.2,29.94,WNW,297,0.0,25.0,92,0.00,,---,0.00,VWS V12.08,2013-02-08 12:16:00,
2013-02-08 07:21:00,61.5,59.2,29.94,WNW,297,0.0,25.0,92,0.00,,---,0.00,VWS V12.08,2013-02-08 12:21:00,
2013-02-08 07:26:00,61.4,59.1,29.94,WNW,297,0.0,25.0,92,0.00,,---,0.00,VWS V12.08,2013-02-08 12:26:00,
2013-02-08 07:31:00,61.5,59.2,29.94,WNW,297,2.0,25.0,92,0.00,,---,0.00,VWS V12.08,2013-02-08 12:31:00,
2013-02-08 07:36:00,61.5,59.2,29.94,WNW,297,0.0,25.0,92,0.00,,---,0.00,VWS V12.08,2013-02-08 12:36:00,
2013-02-08 07:41:00,61.6,59.3,29.95,WNW,297,0.0,25.0,92,0.00,,---,0.00,VWS V12.08,2013-02-08 12:41:00,
2013-02-08 07:46:00,61.7,59.4,29.95,WNW,290,0.0,25.0,92,0.00,,---,0.00,VWS V12.08,2013-02-08 12:46:00,
2013-02-08 07:51:00,61.8,59.5,29.95,WNW,283,0.0,25.0,92,0.00,,---,0.00,VWS V12.08,2013-02-08 12:51:00,
2013-02-08 07:56:00,62.0,59.7,29.95,WNW,290,2.0,25.0,92,0.00,,---,0.00,VWS V12.08,2013-02-08 12:56:00,
2013-02-08 08:01:00,62.1,59.8,29.95,WNW,293,0.0,25.0,92,0.00,,---,0.00,VWS V12.08,2013-02-08 13:01:00,
2013-02-08 08:06:00,62.3,60.0,29.96,WNW,292,0.0,25.0,92,0.00,,---,0.00,VWS V12.08,2013-02-08 13:06:00,
2013-02-08 08:11:00,62.5,60.2,29.96,West,275,4.0,25.0,92,0.00,,---,0.00,VWS V12.08,2013-02-08 13:11:00,
2013-02-08 08:16:00,62.8,60.1,29.97,NW,306,0.0,25.0,91,0.00,,---,0.00,VWS V12.08,2013-02-08 13:16:00,
2013-02-08 08:21:00,63.1,60.4,29.96,West,262,2.0,25.0,91,0.00,,---,0.00,VWS V12.08,2013-02-08 13:21:00,
2013-02-08 08:26:00,63.0,60.0,29.96,WNW,286,0.0,25.0,90,0.00,,---,0.00,VWS V12.08,2013-02-08 13:26:00,
2013-02-08 08:31:00,63.1,60.1,29.96,West,267,2.0,25.0,90,0.00,,---,0.00,VWS V12.08,2013-02-08 13:31:00,
2013-02-08 08:36:00,63.1,60.1,29.97,NW,311,1.0,25.0,90,0.00,,---,0.00,VWS V12.08,2013-02-08 13:36:00,
2013-02-08 08:42:00,63.4,60.4,29.97,WNW,284,6.0,25.0,90,0.00,,---,0.00,VWS V12.08,2013-02-08 13:42:00,
2013-02-08 08:47:00,63.4,60.1,29.97,WNW,294,11.0,25.0,89,0.00,,---,0.00,VWS V12.08,2013-02-08 13:47:00,
2013-02-08 08:52:00,63.4,60.4,29.97,NW,306,0.0,25.0,90,0.00,,---,0.00,VWS V12.08,2013-02-08 13:52:00,
2013-02-08 08:57:00,63.8,60.5,29.97,NW,313,4.0,25.0,89,0.00,,---,0.00,VWS V12.08,2013-02-08 13:57:00,
2013-02-08 09:02:00,63.9,60.3,29.98,NW,325,6.0,25.0,88,0.00,,---,0.00,VWS V12.08,2013-02-08 14:02:00,
2013-02-08 09:07:00,63.9,60.0,29.98,NW,320,8.0,25.0,87,0.00,,---,0.00,VWS V12.08,2013-02-08 14:07:00,
2013-02-08 09:12:00,64.1,60.2,29.98,NW,323,0.0,25.0,87,0.00,,---,0.00,VWS V12.08,2013-02-08 14:12:00,
2013-02-08 09:17:00,64.6,60.7,29.98,NW,307,1.0,25.0,87,0.00,,---,0.00,VWS V12.08,2013-02-08 14:17:00,
2013-02-08 09:22:00,64.8,60.5,29.98,NW,307,2.0,25.0,86,0.00,,---,0.00,VWS V12.08,2013-02-08 14:22:00,
2013-02-08 09:27:00,65.0,60.4,29.98,WNW,302,7.0,25.0,85,0.00,,---,0.00,VWS V12.08,2013-02-08 14:27:00,
2013-02-08 09:32:00,65.1,60.5,29.99,NW,323,4.0,25.0,85,0.00,,---,0.00,VWS V12.08,2013-02-08 14:32:00,
2013-02-08 09:37:00,65.2,60.2,29.99,NW,310,5.0,25.0,84,0.00,,---,0.00,VWS V12.08,2013-02-08 14:37:00,
2013-02-08 09:42:00,65.5,60.5,29.99,WNW,296,5.0,25.0,84,0.00,,---,0.00,VWS V12.08,2013-02-08 14:42:00,
2013-02-08 09:47:00,65.6,60.3,29.99,NNW,339,7.0,25.0,83,0.00,,---,0.00,VWS V12.08,2013-02-08 14:47:00,
2013-02-08 09:52:00,65.9,60.6,29.99,NW,324,7.0,25.0,83,0.00,,---,0.00,VWS V12.08,2013-02-08 14:52:00,
2013-02-08 09:57:00,66.1,60.8,29.99,NW,320,6.0,25.0,83,0.00,,---,0.00,VWS V12.08,2013-02-08 14:57:00,
2013-02-08 10:02:00,66.5,60.8,29.99,NNW,335,9.0,25.0,82,0.00,,---,0.00,VWS V12.08,2013-02-08 15:02:00,
2013-02-08 10:07:00,67.0,61.3,29.99,NNW,334,4.0,25.0,82,0.00,,---,0.00,VWS V12.08,2013-02-08 15:07:00,
2013-02-08 10:12:00,67.5,61.5,29.99,NNW,334,10.0,25.0,81,0.00,,---,0.00,VWS V12.08,2013-02-08 15:12:00,
2013-02-08 10:17:00,67.6,61.2,29.99,NW,321,6.0,25.0,80,0.00,,---,0.00,VWS V12.08,2013-02-08 15:17:00,
2013-02-08 10:22:00,68.1,61.7,29.99,NW,316,6.0,25.0,80,0.00,,---,0.00,VWS V12.08,2013-02-08 15:22:00,
2013-02-08 10:27:00,68.3,61.2,29.99,NNW,330,11.0,25.0,78,0.00,,---,0.00,VWS V12.08,2013-02-08 15:27:00,
2013-02-08 10:32:00,68.3,61.9,29.99,NNW,329,10.0,25.0,80,0.00,,---,0.00,VWS V12.08,2013-02-08 15:32:00,
2013-02-08 10:37:00,68.6,61.1,30.00,NW,321,4.0,25.0,77,0.00,,---,0.00,VWS V12.08,2013-02-08 15:37:00,
2013-02-08 10:42:00,68.7,61.9,30.00,NW,311,2.0,25.0,79,0.00,,---,0.00,VWS V12.08,2013-02-08 15:42:00,
2013-02-08 10:47:00,69.0,61.5,30.00,NNW,335,9.0,25.0,77,0.00,,---,0.00,VWS V12.08,2013-02-08 15:47:00,
2013-02-08 10:52:00,69.1,61.2,30.00,NW,320,4.0,25.0,76,0.00,,---,0.00,VWS V12.08,2013-02-08 15:52:00,
2013-02-08 10:57:00,69.4,61.5,30.00,NNW,327,7.0,25.0,76,0.00,,---,0.00,VWS V12.08,2013-02-08 15:57:00,
2013-02-08 11:02:00,69.6,61.7,30.00,NW,319,5.0,25.0,76,0.00,,---,0.00,VWS V12.08,2013-02-08 16:02:00,
2013-02-08 11:07:00,69.7,61.8,30.00,NNW,327,4.0,25.0,76,0.00,,---,0.00,VWS V12.08,2013-02-08 16:07:00,
2013-02-08 11:12:00,69.7,61.0,30.00,NW,311,4.0,25.0,74,0.00,,---,0.00,VWS V12.08,2013-02-08 16:12:00,
2013-02-08 11:17:00,69.9,62.0,30.00,NW,324,5.0,25.0,76,0.00,,---,0.00,VWS V12.08,2013-02-08 16:17:00,
2013-02-08 11:22:00,70.5,61.8,30.00,NW,313,5.0,25.0,74,0.00,,---,0.00,VWS V12.08,2013-02-08 16:22:00,
2013-02-08 11:27:00,70.8,62.1,30.00,NW,312,2.0,25.0,74,0.00,,---,0.00,VWS V12.08,2013-02-08 16:27:00,
2013-02-08 11:32:00,71.0,62.3,30.00,NW,321,5.0,25.0,74,0.00,,---,0.00,VWS V12.08,2013-02-08 16:32:00,
2013-02-08 11:37:00,71.2,62.1,30.00,NW,309,5.0,25.0,73,0.00,,---,0.00,VWS V12.08,2013-02-08 16:37:00,
2013-02-08 11:42:00,71.2,62.1,29.99,NNW,327,7.0,25.0,73,0.00,,---,0.00,VWS V12.08,2013-02-08 16:42:00,
2013-02-08 11:47:00,71.7,63.4,29.99,NW,320,5.0,25.0,75,0.00,,---,0.00,VWS V12.08,2013-02-08 16:47:00,
2013-02-08 11:52:00,71.9,61.6,29.99,West,272,4.0,25.0,70,0.00,,---,0.00,VWS V12.08,2013-02-08 16:52:00,
2013-02-08 11:57:00,72.0,62.5,29.99,NNW,337,6.0,25.0,72,0.00,,---,0.00,VWS V12.08,2013-02-08 16:57:00,
2013-02-08 12:02:00,72.0,61.7,29.99,WNW,294,5.0,25.0,70,0.00,,---,0.00,VWS V12.08,2013-02-08 17:02:00,
2013-02-08 12:07:00,72.1,61.8,29.98,West,272,4.0,25.0,70,0.00,,---,0.00,VWS V12.08,2013-02-08 17:07:00,
2013-02-08 12:12:00,72.1,61.4,29.98,WNW,300,4.0,25.0,69,0.00,,---,0.00,VWS V12.08,2013-02-08 17:12:00,
2013-02-08 12:17:00,72.0,61.7,29.98,WNW,297,2.0,25.0,70,0.00,,---,0.00,VWS V12.08,2013-02-08 17:17:00,
2013-02-08 12:22:00,72.0,61.7,29.98,NW,323,6.0,25.0,70,0.00,,---,0.00,VWS V12.08,2013-02-08 17:22:00,
2013-02-08 12:27:00,72.5,62.6,29.98,WNW,288,6.0,25.0,71,0.00,,---,0.00,VWS V12.08,2013-02-08 17:27:00,
2013-02-08 12:32:00,72.8,62.5,29.98,NW,321,1.0,25.0,70,0.00,,---,0.00,VWS V12.08,2013-02-08 17:32:00,
2013-02-08 12:37:00,72.8,62.5,29.97,NW,322,6.0,25.0,70,0.00,,---,0.00,VWS V12.08,2013-02-08 17:37:00,
2013-02-08 12:42:00,73.0,62.2,29.97,NW,319,2.0,25.0,69,0.00,,---,0.00,VWS V12.08,2013-02-08 17:42:00,
2013-02-08 12:47:00,73.5,62.7,29.97,WNW,286,7.0,25.0,69,0.00,,---,0.00,VWS V12.08,2013-02-08 17:47:00,
2013-02-08 12:52:00,74.0,62.8,29.97,NW,309,0.0,25.0,68,0.00,,---,0.00,VWS V12.08,2013-02-08 17:52:00,
2013-02-08 12:57:00,74.0,62.4,29.96,NNW,327,6.0,25.0,67,0.00,,---,0.00,VWS V12.08,2013-02-08 17:57:00,
2013-02-08 13:02:00,74.2,62.1,29.96,NNW,327,2.0,25.0,66,0.00,,---,0.00,VWS V12.08,2013-02-08 18:02:00,
2013-02-08 13:07:00,74.0,61.9,29.96,WNW,302,5.0,25.0,66,0.00,,---,0.00,VWS V12.08,2013-02-08 18:07:00,
2013-02-08 13:12:00,74.2,61.7,29.96,NW,304,5.0,25.0,65,0.00,,---,0.00,VWS V12.08,2013-02-08 18:12:00,
2013-02-08 13:17:00,74.4,61.4,29.96,WNW,288,8.0,25.0,64,0.00,,---,0.00,VWS V12.08,2013-02-08 18:17:00,
2013-02-08 13:22:00,74.1,61.2,29.96,WNW,289,7.0,25.0,64,0.00,,---,0.00,VWS V12.08,2013-02-08 18:22:00,
2013-02-08 13:27:00,74.1,61.2,29.96,NNW,342,10.0,25.0,64,0.00,,---,0.00,VWS V12.08,2013-02-08 18:27:00,
2013-02-08 13:32:00,74.1,61.2,29.96,WNW,289,5.0,25.0,64,0.00,,---,0.00,VWS V12.08,2013-02-08 18:32:00,
2013-02-08 13:37:00,74.3,61.8,29.95,NW,310,9.0,25.0,65,0.00,,---,0.00,VWS V12.08,2013-02-08 18:37:00,
2013-02-08 13:42:00,73.9,61.0,29.95,NW,308,5.0,25.0,64,0.00,,---,0.00,VWS V12.08,2013-02-08 18:42:00,
2013-02-08 13:47:00,74.3,61.8,29.95,NW,320,8.0,25.0,65,0.00,,---,0.00,VWS V12.08,2013-02-08 18:47:00,
2013-02-08 13:52:00,74.9,61.9,29.94,NW,312,6.0,25.0,64,0.00,,---,0.00,VWS V12.08,2013-02-08 18:52:00,
2013-02-08 13:57:00,75.0,62.0,29.94,West,266,6.0,25.0,64,0.00,,---,0.00,VWS V12.08,2013-02-08 18:57:00,
2013-02-08 14:02:00,75.3,61.8,29.94,West,281,4.0,25.0,63,0.00,,---,0.00,VWS V12.08,2013-02-08 19:02:00,
2013-02-08 14:07:00,75.3,61.4,29.94,WNW,302,4.0,25.0,62,0.00,,---,0.00,VWS V12.08,2013-02-08 19:07:00,
2013-02-08 14:12:00,75.3,61.4,29.94,West,275,6.0,25.0,62,0.00,,---,0.00,VWS V12.08,2013-02-08 19:12:00,
2013-02-08 14:17:00,75.5,61.6,29.94,NW,304,4.0,25.0,62,0.00,,---,0.00,VWS V12.08,2013-02-08 19:17:00,
2013-02-08 14:22:00,75.5,60.7,29.94,NW,316,0.0,25.0,60,0.00,,---,0.00,VWS V12.08,2013-02-08 19:22:00,
2013-02-08 14:27:00,76.0,61.6,29.94,NNW,335,7.0,25.0,61,0.00,,---,0.00,VWS V12.08,2013-02-08 19:27:00,
2013-02-08 14:32:00,76.2,60.8,29.94,NW,311,0.0,25.0,59,0.00,,---,0.00,VWS V12.08,2013-02-08 19:32:00,
2013-02-08 14:37:00,76.0,61.1,29.94,NW,321,2.0,25.0,60,0.00,,---,0.00,VWS V12.08,2013-02-08 19:37:00,
2013-02-08 14:42:00,76.3,61.4,29.94,NW,319,5.0,25.0,60,0.00,,---,0.00,VWS V12.08,2013-02-08 19:42:00,
2013-02-08 14:47:00,76.3,61.4,29.94,WNW,301,4.0,25.0,60,0.00,,---,0.00,VWS V12.08,2013-02-08 19:47:00,
2013-02-08 14:52:00,76.5,61.1,29.94,WNW,299,5.0,25.0,59,0.00,,---,0.00,VWS V12.08,2013-02-08 19:52:00,
2013-02-08 14:57:00,76.5,60.2,29.94,NNW,331,2.0,25.0,57,0.00,,---,0.00,VWS V12.08,2013-02-08 19:57:00,
2013-02-08 15:03:00,76.4,60.5,29.93,NNW,327,5.0,25.0,58,0.00,,---,0.00,VWS V12.08,2013-02-08 20:03:00,
2013-02-08 15:08:00,76.4,60.5,29.93,NW,318,7.0,25.0,58,0.00,,---,0.00,VWS V12.08,2013-02-08 20:08:00,
2013-02-08 15:13:00,76.5,60.2,29.93,NNW,336,7.0,25.0,57,0.00,,---,0.00,VWS V12.08,2013-02-08 20:13:00,
2013-02-08 15:18:00,76.5,60.2,29.93,NW,313,4.0,25.0,57,0.00,,---,0.00,VWS V12.08,2013-02-08 20:18:00,
2013-02-08 15:23:00,76.8,60.4,29.93,WNW,294,8.0,25.0,57,0.00,,---,0.00,VWS V12.08,2013-02-08 20:23:00,
2013-02-08 15:28:00,76.8,59.9,29.93,WNW,292,4.0,25.0,56,0.00,,---,0.00,VWS V12.08,2013-02-08 20:28:00,
2013-02-08 15:33:00,76.9,60.5,29.93,WSW,242,12.0,25.0,57,0.00,,---,0.00,VWS V12.08,2013-02-08 20:33:00,
2013-02-08 15:38:00,77.5,60.6,29.93,West,268,10.0,25.0,56,0.00,,---,0.00,VWS V12.08,2013-02-08 20:38:00,
2013-02-08 15:43:00,77.6,60.7,29.93,West,274,0.0,25.0,56,0.00,,---,0.00,VWS V12.08,2013-02-08 20:43:00,
2013-02-08 15:48:00,77.5,60.6,29.93,WNW,294,2.0,25.0,56,0.00,,---,0.00,VWS V12.08,2013-02-08 20:48:00,
2013-02-08 15:53:00,77.5,61.1,29.93,West,279,0.0,25.0,57,0.00,,---,0.00,VWS V12.08,2013-02-08 20:53:00,
2013-02-08 15:58:00,77.3,60.9,29.94,WNW,302,0.0,25.0,57,0.00,,---,0.00,VWS V12.08,2013-02-08 20:58:00,
2013-02-08 16:03:00,77.2,61.3,29.93,WNW,290,0.0,25.0,58,0.00,,---,0.00,VWS V12.08,2013-02-08 21:03:00,
2013-02-08 16:08:00,77.1,60.7,29.93,West,261,2.0,25.0,57,0.00,,---,0.00,VWS V12.08,2013-02-08 21:08:00,
2013-02-08 16:13:00,77.6,61.2,29.93,West,260,12.0,25.0,57,0.00,,---,0.00,VWS V12.08,2013-02-08 21:13:00,
2013-02-08 16:18:00,77.8,60.9,29.93,West,275,4.0,25.0,56,0.00,,---,0.00,VWS V12.08,2013-02-08 21:18:00,
2013-02-08 16:23:00,77.8,60.9,29.93,WSW,250,3.0,25.0,56,0.00,,---,0.00,VWS V12.08,2013-02-08 21:23:00,
2013-02-08 16:28:00,77.7,60.8,29.93,WNW,296,0.0,25.0,56,0.00,,---,0.00,VWS V12.08,2013-02-08 21:28:00,
2013-02-08 16:33:00,77.6,61.2,29.93,WSW,250,10.0,25.0,57,0.00,,---,0.00,VWS V12.08,2013-02-08 21:33:00,
2013-02-08 16:38:00,77.7,60.3,29.93,WSW,250,10.0,25.0,55,0.00,,---,0.00,VWS V12.08,2013-02-08 21:38:00,
2013-02-08 16:43:00,77.6,60.7,29.93,WNW,290,4.0,25.0,56,0.00,,---,0.00,VWS V12.08,2013-02-08 21:43:00,
2013-02-08 16:48:00,77.7,60.8,29.93,WNW,282,2.0,25.0,56,0.00,,---,0.00,VWS V12.08,2013-02-08 21:48:00,
2013-02-08 16:53:00,77.5,60.6,29.93,West,281,1.0,25.0,56,0.00,,---,0.00,VWS V12.08,2013-02-08 21:53:00,
2013-02-08 16:58:00,77.4,60.5,29.93,WNW,303,2.0,25.0,56,0.00,,---,0.00,VWS V12.08,2013-02-08 21:58:00,
2013-02-08 17:03:00,76.9,60.5,29.94,West,263,6.0,25.0,57,0.00,,---,0.00,VWS V12.08,2013-02-08 22:03:00,
2013-02-08 17:08:00,76.7,60.3,29.94,WNW,290,1.0,25.0,57,0.00,,---,0.00,VWS V12.08,2013-02-08 22:08:00,
2013-02-08 17:13:00,76.5,60.2,29.94,West,267,5.0,25.0,57,0.00,,---,0.00,VWS V12.08,2013-02-08 22:13:00,
2013-02-08 17:18:00,76.3,60.0,29.94,West,269,4.0,25.0,57,0.00,,---,0.00,VWS V12.08,2013-02-08 22:18:00,
2013-02-08 17:23:00,76.0,59.7,29.94,WNW,283,4.0,25.0,57,0.00,,---,0.00,VWS V12.08,2013-02-08 22:23:00,
2013-02-08 17:28:00,75.9,59.1,29.94,West,265,5.0,25.0,56,0.00,,---,0.00,VWS V12.08,2013-02-08 22:28:00,
2013-02-08 17:33:00,75.6,58.8,29.95,West,270,5.0,25.0,56,0.00,,---,0.00,VWS V12.08,2013-02-08 22:33:00,
2013-02-08 17:38:00,75.3,59.0,29.94,West,268,0.0,25.0,57,0.00,,---,0.00,VWS V12.08,2013-02-08 22:38:00,
2013-02-08 17:43:00,75.0,58.8,29.95,West,281,1.0,25.0,57,0.00,,---,0.00,VWS V12.08,2013-02-08 22:43:00,
2013-02-08 17:48:00,74.5,58.3,29.95,West,279,2.0,25.0,57,0.00,,---,0.00,VWS V12.08,2013-02-08 22:48:00,
2013-02-08 17:53:00,74.1,57.9,29.95,WNW,282,0.0,25.0,57,0.00,,---,0.00,VWS V12.08,2013-02-08 22:53:00,
2013-02-08 17:58:00,73.7,58.0,29.95,WSW,258,0.0,25.0,58,0.00,,---,0.00,VWS V12.08,2013-02-08 22:58:00,
2013-02-08 18:03:00,73.2,58.0,29.95,WSW,258,1.0,25.0,59,0.00,,---,0.00,VWS V12.08,2013-02-08 23:03:00,
2013-02-08 18:08:00,72.8,57.7,29.95,West,261,3.0,25.0,59,0.00,,---,0.00,VWS V12.08,2013-02-08 23:08:00,
2013-02-08 18:13:00,72.3,57.7,29.96,West,261,0.0,25.0,60,0.00,,---,0.00,VWS V12.08,2013-02-08 23:13:00,
2013-02-08 18:18:00,71.8,57.6,29.95,West,261,0.0,25.0,61,0.00,,---,0.00,VWS V12.08,2013-02-08 23:18:00,
2013-02-08 18:23:00,71.5,57.8,29.96,West,261,0.0,25.0,62,0.00,,---,0.00,VWS V12.08,2013-02-08 23:23:00,
2013-02-08 18:28:00,71.0,57.3,29.96,West,261,2.0,25.0,62,0.00,,---,0.00,VWS V12.08,2013-02-08 23:28:00,
2013-02-08 18:33:00,70.5,57.3,29.96,West,261,0.0,25.0,63,0.00,,---,0.00,VWS V12.08,2013-02-08 23:33:00,
2013-02-08 18:38:00,69.8,57.5,29.96,West,261,3.0,25.0,65,0.00,,---,0.00,VWS V12.08,2013-02-08 23:38:00,
2013-02-08 18:43:00,69.3,57.5,29.97,West,261,1.0,25.0,66,0.00,,---,0.00,VWS V12.08,2013-02-08 23:43:00,
2013-02-08 18:48:00,69.1,57.7,29.97,West,261,0.0,25.0,67,0.00,,---,0.00,VWS V12.08,2013-02-08 23:48:00,
2013-02-08 18:53:00,68.9,57.5,29.97,West,261,2.0,25.0,67,0.00,,---,0.00,VWS V12.08,2013-02-08 23:53:00,
2013-02-08 18:58:00,68.6,57.6,29.97,West,261,0.0,25.0,68,0.00,,---,0.00,VWS V12.08,2013-02-08 23:58:00,
2013-02-08 19:03:00,68.5,57.9,29.97,West,261,0.0,25.0,69,0.00,,---,0.00,VWS V12.08,2013-02-09 00:03:00,
2013-02-08 19:08:00,68.3,57.8,29.97,West,261,2.0,25.0,69,0.00,,---,0.00,VWS V12.08,2013-02-09 00:08:00,
2013-02-08 19:13:00,68.1,57.6,29.97,West,261,0.0,25.0,69,0.00,,---,0.00,VWS V12.08,2013-02-09 00:13:00,
2013-02-08 19:18:00,68.0,57.5,29.98,West,261,0.0,25.0,69,0.00,,---,0.00,VWS V12.08,2013-02-09 00:18:00,
2013-02-08 19:24:00,67.8,57.3,29.98,West,261,0.0,25.0,69,0.00,,---,0.00,VWS V12.08,2013-02-09 00:24:00,
2013-02-08 19:29:00,67.5,57.4,29.99,West,261,0.0,25.0,70,0.00,,---,0.00,VWS V12.08,2013-02-09 00:29:00,
2013-02-08 19:34:00,67.3,57.2,29.99,West,261,0.0,25.0,70,0.00,,---,0.00,VWS V12.08,2013-02-09 00:34:00,
2013-02-08 19:39:00,67.2,57.1,29.99,West,261,0.0,25.0,70,0.00,,---,0.00,VWS V12.08,2013-02-09 00:39:00,
2013-02-08 19:44:00,67.0,57.3,29.99,West,261,0.0,25.0,71,0.00,,---,0.00,VWS V12.08,2013-02-09 00:44:00,
2013-02-08 19:49:00,66.7,57.0,29.99,West,261,2.0,25.0,71,0.00,,---,0.00,VWS V12.08,2013-02-09 00:49:00,
2013-02-08 19:54:00,66.5,57.2,30.00,West,261,0.0,25.0,72,0.00,,---,0.00,VWS V12.08,2013-02-09 00:54:00,
2013-02-08 19:59:00,66.3,57.0,30.00,West,261,3.0,25.0,72,0.00,,---,0.00,VWS V12.08,2013-02-09 00:59:00,
2013-02-08 20:04:00,66.1,57.2,30.00,West,261,0.0,25.0,73,0.00,,---,0.00,VWS V12.08,2013-02-09 01:04:00,
2013-02-08 20:09:00,66.0,57.1,30.01,West,262,0.0,25.0,73,0.00,,---,0.00,VWS V12.08,2013-02-09 01:09:00,
2013-02-08 20:14:00,65.9,57.4,30.01,West,275,4.0,25.0,74,0.00,,---,0.00,VWS V12.08,2013-02-09 01:14:00,
2013-02-08 20:19:00,65.9,57.8,30.01,West,277,0.0,25.0,75,0.00,,---,0.00,VWS V12.08,2013-02-09 01:19:00,
2013-02-08 20:24:00,65.8,58.0,30.01,West,279,0.0,25.0,76,0.00,,---,0.00,VWS V12.08,2013-02-09 01:24:00,
2013-02-08 20:29:00,65.6,58.2,30.02,West,279,0.0,25.0,77,0.00,,---,0.00,VWS V12.08,2013-02-09 01:29:00,
2013-02-08 20:34:00,65.3,57.9,30.02,West,279,0.0,25.0,77,0.00,,---,0.00,VWS V12.08,2013-02-09 01:34:00,
2013-02-08 20:39:00,64.8,57.8,30.02,WNW,284,5.0,25.0,78,0.00,,---,0.00,VWS V12.08,2013-02-09 01:39:00,
2013-02-08 20:44:00,64.6,58.0,30.02,WNW,290,5.0,25.0,79,0.00,,---,0.00,VWS V12.08,2013-02-09 01:44:00,
2013-02-08 20:49:00,64.5,58.2,30.03,WNW,296,1.0,25.0,80,0.00,,---,0.00,VWS V12.08,2013-02-09 01:49:00,
2013-02-08 20:54:00,64.3,58.0,30.03,WNW,297,2.0,25.0,80,0.00,,---,0.00,VWS V12.08,2013-02-09 01:54:00,
2013-02-08 20:59:00,64.1,58.2,30.03,WNW,297,0.0,25.0,81,0.00,,---,0.00,VWS V12.08,2013-02-09 01:59:00,
2013-02-08 21:04:00,63.9,58.3,30.03,WNW,298,0.0,25.0,82,0.00,,---,0.00,VWS V12.08,2013-02-09 02:04:00,
2013-02-08 21:09:00,63.6,58.0,30.04,WNW,298,0.0,25.0,82,0.00,,---,0.00,VWS V12.08,2013-02-09 02:09:00,
2013-02-08 21:14:00,63.3,58.1,30.04,WNW,302,1.0,25.0,83,0.00,,---,0.00,VWS V12.08,2013-02-09 02:14:00,
2013-02-08 21:19:00,63.0,57.8,30.04,WNW,302,0.0,25.0,83,0.00,,---,0.00,VWS V12.08,2013-02-09 02:19:00,
2013-02-08 21:24:00,62.7,57.8,30.05,WNW,302,0.0,25.0,84,0.00,,---,0.00,VWS V12.08,2013-02-09 02:24:00,
2013-02-08 21:29:00,62.5,57.9,30.05,WNW,302,0.0,25.0,85,0.00,,---,0.00,VWS V12.08,2013-02-09 02:29:00,
2013-02-08 21:34:00,62.3,57.7,30.05,NW,304,0.0,25.0,85,0.00,,---,0.00,VWS V12.08,2013-02-09 02:34:00,
2013-02-08 21:39:00,62.1,57.5,30.05,WNW,302,0.0,25.0,85,0.00,,---,0.00,VWS V12.08,2013-02-09 02:39:00,
2013-02-08 21:44:00,61.8,57.6,30.06,WNW,302,0.0,25.0,86,0.00,,---,0.00,VWS V12.08,2013-02-09 02:44:00,
2013-02-08 21:49:00,61.6,57.4,30.06,WNW,303,0.0,25.0,86,0.00,,---,0.00,VWS V12.08,2013-02-09 02:49:00,
2013-02-08 21:54:00,61.4,57.5,30.06,NW,305,0.0,25.0,87,0.00,,---,0.00,VWS V12.08,2013-02-09 02:54:00,
2013-02-08 21:59:00,61.1,57.2,30.06,NW,305,0.0,25.0,87,0.00,,---,0.00,VWS V12.08,2013-02-09 02:59:00,
2013-02-08 22:04:00,60.9,57.0,30.06,NW,305,0.0,25.0,87,0.00,,---,0.00,VWS V12.08,2013-02-09 03:04:00,
2013-02-08 22:09:00,60.8,57.2,30.06,NW,305,0.0,25.0,88,0.00,,---,0.00,VWS V12.08,2013-02-09 03:09:00,
2013-02-08 22:14:00,60.6,57.0,30.06,NW,305,0.0,25.0,88,0.00,,---,0.00,VWS V12.08,2013-02-09 03:14:00,
2013-02-08 22:19:00,60.4,56.8,30.06,NW,305,0.0,25.0,88,0.00,,---,0.00,VWS V12.08,2013-02-09 03:19:00,
2013-02-08 22:24:00,60.2,56.6,30.06,NW,305,0.0,25.0,88,0.00,,---,0.00,VWS V12.08,2013-02-09 03:24:00,
2013-02-08 22:29:00,59.9,56.3,30.06,NW,305,0.0,25.0,88,0.00,,---,0.00,VWS V12.08,2013-02-09 03:29:00,
2013-02-08 22:34:00,59.8,56.6,30.06,NW,305,0.0,25.0,89,0.00,,---,0.00,VWS V12.08,2013-02-09 03:34:00,
2013-02-08 22:39:00,59.6,56.4,30.06,NW,305,0.0,25.0,89,0.00,,---,0.00,VWS V12.08,2013-02-09 03:39:00,
2013-02-08 22:44:00,59.5,56.3,30.06,NW,305,0.0,25.0,89,0.00,,---,0.00,VWS V12.08,2013-02-09 03:44:00,
2013-02-08 22:49:00,59.3,56.1,30.06,NW,305,0.0,25.0,89,0.00,,---,0.00,VWS V12.08,2013-02-09 03:49:00,
2013-02-08 22:54:00,59.1,56.2,30.06,NW,305,0.0,25.0,90,0.00,,---,0.00,VWS V12.08,2013-02-09 03:54:00,
2013-02-08 22:59:00,59.0,56.1,30.06,NW,305,0.0,25.0,90,0.00,,---,0.00,VWS V12.08,2013-02-09 03:59:00,
2013-02-08 23:04:00,58.9,56.0,30.06,NW,305,0.0,25.0,90,0.00,,---,0.00,VWS V12.08,2013-02-09 04:04:00,
2013-02-08 23:09:00,58.7,55.8,30.06,NW,305,0.0,25.0,90,0.00,,---,0.00,VWS V12.08,2013-02-09 04:09:00,
2013-02-08 23:14:00,58.4,55.5,30.07,NW,305,0.0,25.0,90,0.00,,---,0.00,VWS V12.08,2013-02-09 04:14:00,
2013-02-08 23:19:00,58.1,54.9,30.07,NW,305,0.0,25.0,89,0.00,,---,0.00,VWS V12.08,2013-02-09 04:19:00,
2013-02-08 23:24:00,57.7,54.5,30.07,NW,305,0.0,25.0,89,0.00,,---,0.00,VWS V12.08,2013-02-09 04:24:00,
2013-02-08 23:29:00,57.5,54.6,30.06,NW,305,0.0,25.0,90,0.00,,---,0.00,VWS V12.08,2013-02-09 04:29:00,
2013-02-08 23:34:00,57.5,54.9,30.06,NW,305,0.0,25.0,91,0.00,,---,0.00,VWS V12.08,2013-02-09 04:34:00,
2013-02-08 23:39:00,57.5,54.9,30.06,NW,305,0.0,25.0,91,0.00,,---,0.00,VWS V12.08,2013-02-09 04:39:00,
2013-02-08 23:44:00,57.3,54.7,30.06,NW,305,0.0,25.0,91,0.00,,---,0.00,VWS V12.08,2013-02-09 04:44:00,
2013-02-08 23:49:00,56.8,53.9,30.07,NW,305,0.0,25.0,90,0.00,,---,0.00,VWS V12.08,2013-02-09 04:49:00,
2013-02-08 23:54:00,56.3,53.7,30.07,NW,305,0.0,25.0,91,0.00,,---,0.00,VWS V12.08,2013-02-09 04:54:00,
2013-02-08 23:59:00,55.7,52.8,30.07,NW,305,0.0,25.0,90,0.00,,---,0.00,VWS V12.08,2013-02-09 04:59:00,